Terminal Aerodrome Forecast
Issued by NWS

Home | Current Version | Previous Version | Text Only | Print | Product List | Glossary On
Versions: 1 2 3 4 5 6 7 8 9 10 11 12 13 14 15 16 17 18 19 20 21 22 23 24 25 26 27 28
233
FTUS45 KGJT 232323
TAFMTJ
TAF
KMTJ 232323Z 2400/2424 36005KT P6SM FEW150
     FM240200 12005KT P6SM SCT250
     FM241800 31004KT P6SM SCT200=

USA.gov is the U.S. government's official web portal to all federal, state and local government web resources and services.